Location: Cz?stochówka
(50.8142°N, 19.0915°E)
Time: 01:24:01
(UTC+00:00)

Cosmos 2366 rocket - Pass Details

Date: 13 April 2026
Orbit: 954 x 996 km, 82.9° (Epoch: 19 May)

Event Time Altitude Azimuth Distance (km) Brightness Sun altitude
Rises 18:43:35 0° 168° (SSE) 3,642 6.6 -10.7°
Reaches altitude 10° 18:46:09 10° 163° (SSE) 2,695 5.9 -11.1°
Maximum altitude 18:52:02 49° 91° (E) 1,221 4.2 -11.9°
Drops below altitude 10° 18:57:55 10° 19° (NNE) 2,697 6.5 -12.6°
Sets 19:00:29 0° 14° (NNE) 3,646 7.3 -13.0°
